STARLINK-1687, 46541

Orbit data source: Space-Track

STARLINK-1687, 46541 is a payload satellite owned by SpaceX/Seattle (US) in LEO that was launched on Tue, 06 Oct 2020 UTC via an FALCON 9 launch vehicle from the Air Force Eastern Test Range (AFETR). Payload-class satellites include a variety of spacecraft equipped with specific instruments for various scientific and technological missions. These include communications satellites like Starlink; space stations such as the ISS; scientific satellites like the Hubble; Earth observation satellites from companies like Planet Labs, Umbra, and HawkEye 360; GPS; miniature CubeSats for education and research; and military/defense satellites.

Loading next visibility...
Identifier
46541, 2020-070K
Orbit
LEO
Country
Flag of USUS
Related business
Manufacturer
SpaceX/Seattle
Mission
Partially operational Commercial Communications
Bus & Motor
STARLINK, Unknown motor
Mass
260 kg wet, ~248 kg dry
Launch date (UTC)
2020-10-06 (5 years ago)
Launch vehicle
FALCON 9
Launch site
Air Force Eastern Test Range (AFETR)
Object type
Payload
Rocket body
Debris
Shape & HBR
Box + 1 Pan, 10.1 m
Radar Cross Section
13.562 m², Large (>1 m²)

Expand to show TLE details & history
Last TLE update: 3 hours ago

TLE from 3 hours ago
0 STARLINK-1687
1 46541U 20070K   25291.33336806  .00179499  00000-0  45229-2 0  9993
2 46541  53.0512  69.5011 0005886 286.1098 354.3560 15.38713801  5852
Epoch: 2025-10-18T08:00Z
TLE epoch observation values (Epoch: 2025-10-18T08:00:03.000Z)
Latitude
-51.96368°
Longitude
-150.54356°
Altitude
463.92 km
Speed
7.637 km/s
True Right ascension
23h 46m 08s
True Declination
-51° 47' 22"
Sunlit
Object was in full shadow at epoch
Visualization orbit readout
Latitude
Unknown
Longitude
Unknown
Altitude
Unknown
Speed
Unknown
Apparent Right ascension
Unknown
Apparent Declination
Unknown
Sunlit
N/A
Visualization observer readout
Local Sidereal Time
06:03:04
Azimuth
Unknown
Elevation
Unknown
Doppler factor
Unknown
Orbital elements
Apogee altitude
454.206 km
Perigee altitude
446.168 km
Semi-major axis
6,828.324 km
Eccentricity
0.00059
Inclination
53.0512°
RAAN
69.5011°
Arg. of periapsis
286.1098°
True anomaly
354.34936°
Mean anomaly
354.356°
Eccentric anomaly
354.35268°
Mean motion
3.84656 °/min
Orbital period
93.59 mins
BSTAR
0.0045229
Loading maneuver chart data...
Computing Atmospheric mass density...

Documentation

Showing up to 5 results
|